Hourly Data Report for September 16, 2017

All times are specified in Local Standard Time (LST). Add 1 hour to adjust for Daylight Saving Time where and when it is observed.

MISCOU ISLAND (AUT)
NEW BRUNSWICK

48°00'32.002" N
64°29'39.008" W
4.00 m
8103050
71719
WMI

Download Data

Hourly Data (September 2017)
Hourly Data Report for September 16, 2017
Temp Definition
°C
Dew Point Temp Definition
°C
Rel Hum Definition
%
Wind Dir Definition
10's deg

Wind Spd Definition
km/h
Visibility Definition
km
Stn Press Definition
kPa
Hmdx Definition


Wind Chill Definition


Weather Definition


TIME
00:00 11.0 10.0 94 23 10   101.88     LegendNANA
01:00 10.2 9.2 93 22 8   101.85     LegendNANA
02:00 10.9 10.1 95 21 8   101.78     LegendNANA
03:00 11.8 11.0 95 18 13   101.71     LegendNANA
04:00 11.8 11.0 95 22 11   101.71     LegendNANA
05:00 13.7 12.6 93 22 19   101.62     LegendNANA
06:00 14.3 13.0 92 23 16   101.63     LegendNANA
07:00 14.7 13.1 90 24 14   101.67     LegendNANA
08:00 15.5 13.3 87 24 11   101.70     LegendNANA
09:00 15.2 13.1 87 36 14   101.78     LegendNANA
10:00 14.0 10.6 80 5 19   101.82     LegendNANA
11:00 14.3 8.9 70 5 17   101.82     LegendNANA
12:00 14.1 10.2 77 5 22   101.87     LegendNANA
13:00 14.0 10.7 81 3 27   101.94     LegendNANA
14:00 13.3 10.7 84 4 31   101.97     LegendNANA
15:00 13.9 10.8 81 3 26   102.00     LegendNANA
16:00 14.5 10.3 76 5 20   102.04     LegendNANA
17:00 13.7 9.6 77 6 20   102.04     LegendNANA
18:00 13.6 8.9 73 4 28   102.10     LegendNANA
19:00 14.0 7.9 67 4 26   102.13     LegendNANA
20:00 13.8 7.7 67 3 25   102.20     LegendNANA
21:00 13.7 7.4 66 3 20   102.24     LegendNANA
22:00 13.3 8.2 71 4 17   102.24     LegendNANA
23:00 13.3 8.1 71 4 16   102.28     LegendNANA

Notes on Data Quality.

Legend

  • E = Estimated
  • M = Missing
  • NA = Not Available
  • ‡ = Partner data that is not subject to review by the National Climate Archives
Date modified: